                ,  0.485,  0.585,  0.685,  0.785,  0.885,  0.985,  1.085,  1.185,  1.285,  1.385,  1.485,  1.585,  1.685,  1.785,  1.885,  1.985,  2.085,  2.185,  2.285,  2.385,  2.485,  2.585,  2.685,  2.785,  2.885,  2.985,  3.085,  3.185,  3.285,  3.385,  3.485,  3.585,  3.685,  3.785,  3.885,  3.985,  4.085,  4.185,  4.285,  4.385,  4.485,  4.585,  4.685,  4.785,  4.885,  4.985,  5.085,  5.185,  5.285,  5.385,  5.485,  5.585,  5.685,  5.785,  5.885,  5.985,  6.085,  6.185,  6.285,  6.385,  6.485,  6.585,  6.685,  6.785,  6.885,  6.985,  7.085,  7.185,  7.285,  7.385,  7.485,  7.585,  7.685,  7.785,  7.885,  7.985,  8.085,  8.185,  8.285,  8.385
2013/09/16 00:00,   -3.8,   -3.1,   -3.1,   -2.7,   -2.5,   -2.6,   -2.9,   -3.0,   -2.5,   -2.6,   -2.6,   -2.1,   -2.0,   -2.1,   -1.5,   -1.1,   -0.7,   -0.8,   -1.2,   -1.0,   -1.1,   -1.0,   -1.2,   -1.0,   -1.0,   -0.5,   -0.2,    0.6,    0.5,    0.4,    0.7,    0.6,    1.0,    0.8,    0.7,    0.3,    0.4,    0.6,  999.0,  999.0,  999.0,  999.0,  999.0,  999.0,  999.0,  999.0,  999.0,   -0.1,  999.0,  999.0,  999.0,  999.0,  999.0,  999.0,  999.0,  999.0,  999.0,  999.0,  999.0,  999.0,  999.0,  999.0,  999.0,  999.0,  999.0,  999.0,   -0.8,   -1.1,   -1.4,   -1.5,   -1.4,   -1.4,   -1.3,   -1.1,   -1.0,   -0.9,   -0.9,   -0.8,   -1.0,   -1.2
2013/09/16 00:10,   -3.2,   -3.4,   -3.1,   -2.4,   -2.6,   -2.4,   -2.6,   -2.1,   -2.0,   -2.3,   -1.6,   -1.5,   -1.4,   -1.3,   -1.3,   -1.3,   -1.2,   -1.5,   -1.2,   -1.5,   -1.6,   -1.7,   -1.8,   -1.4,   -1.4,   -1.8,   -1.6,   -1.4,   -1.5,   -0.9,   -1.2,   -1.0,   -0.7,   -0.9,   -0.7,   -0.7,   -0.3,   -0.1,    0.2,   -0.2,    0.0,    0.5,    0.2,   -0.3,  999.0,   -0.2,   -0.1,    0.0,    0.1,    0.5,    1.0,    0.5,  999.0,  999.0,  999.0,  999.0,  999.0,  999.0,  999.0,  999.0,  999.0,  999.0,  999.0,  999.0,  999.0,  999.0,   -0.8,   -1.1,   -1.1,   -1.3,   -1.3,   -1.2,   -1.3,   -1.4,   -1.0,   -1.1,   -1.0,   -0.9,   -1.0,   -0.9
2013/09/16 00:20,   -4.1,   -3.6,   -3.2,   -3.2,   -3.4,   -2.8,   -3.1,  999.0,   -3.4,   -3.5,   -3.2,   -3.7,   -4.1,   -4.2,   -4.0,   -4.2,   -4.2,   -4.3,   -4.3,   -4.3,   -4.2,   -4.2,   -3.8,   -4.1,   -3.9,   -3.8,   -3.6,   -3.5,   -4.0,   -4.0,   -4.2,   -3.9,   -3.9,   -3.1,   -2.9,   -2.8,   -2.8,   -2.8,   -2.6,   -2.5,   -2.4,   -2.3,   -2.6,   -2.3,   -2.0,   -1.9,   -1.7,   -1.2,   -1.2,   -0.9,   -0.6,   -0.4,   -0.5,   -0.2,   -0.1,   -0.5,   -0.0,  999.0,  999.0,  999.0,  999.0,  999.0,  999.0,  999.0,  999.0,  999.0,  999.0,  999.0,  999.0,  999.0,  999.0,  999.0,  999.0,   -0.2,  999.0,  999.0,  999.0,  999.0,  999.0,  999.0
2013/09/16 00:30,   -4.5,   -5.0,   -4.3,   -3.9,   -4.2,   -4.3,  999.0,   -3.0,   -4.0,   -3.7,   -3.1,   -3.8,   -4.9,   -5.2,   -5.5,   -5.6,   -5.5,   -5.3,   -5.6,   -5.6,   -5.8,   -5.4,   -5.6,   -5.9,   -5.6,   -5.2,   -5.4,   -5.3,   -4.8,   -5.7,   -5.6,   -5.6,   -5.5,   -5.7,   -5.4,   -5.5,   -5.5,   -5.4,   -5.4,   -5.4,   -5.5,   -5.3,   -4.7,   -3.9,   -3.7,   -3.0,   -2.7,   -2.1,   -1.9,   -1.7,   -1.6,   -1.5,   -1.3,   -1.1,   -0.9,   -0.7,   -0.8,   -0.5,   -0.7,   -0.7,   -0.7,   -0.5,   -0.5,   -0.4,   -0.4,   -0.2,  999.0,   -1.2,   -1.4,   -1.4,   -1.5,   -1.5,   -1.5,   -1.7,   -1.5,   -1.5,   -1.4,   -1.4,   -1.3,   -1.0
2013/09/16 00:40,   -3.9,   -3.6,   -3.9,   -3.6,   -3.5,   -3.9,   -3.3,   -3.1,   -2.8,   -2.8,   -3.6,   -2.9,   -2.8,   -2.5,   -2.3,   -2.3,   -2.5,   -2.3,   -2.4,   -2.7,   -2.5,   -2.5,   -2.4,   -2.0,   -2.0,   -2.5,   -2.2,   -2.1,   -2.2,   -2.5,   -2.2,   -2.2,   -2.0,   -1.9,   -1.3,   -1.6,   -1.6,   -1.8,   -1.7,   -1.6,   -1.7,   -1.4,   -1.8,   -1.6,   -1.4,   -1.4,   -1.1,   -0.8,   -0.7,   -1.0,   -0.7,   -0.6,   -0.6,   -0.7,   -0.8,   -0.7,    0.1,   -0.1,    0.1,  999.0,   -0.5,   -0.3,   -0.8,   -0.9,   -1.1,   -1.1,   -1.1,   -1.1,   -1.0,   -1.1,   -1.0,   -1.0,   -1.0,   -1.0,   -0.9,   -0.9,   -0.9,   -0.9,   -0.9,   -0.9
2013/09/16 00:50,   -3.2,   -3.6,   -3.3,   -2.7,   -3.3,   -2.9,   -3.2,   -3.0,   -3.1,   -2.7,   -2.4,   -2.4,   -2.3,   -2.5,   -2.5,   -2.6,   -2.9,   -2.9,   -2.9,   -3.2,   -2.8,   -3.1,   -3.0,   -3.0,   -3.2,   -3.3,   -3.0,   -2.7,   -2.5,   -2.8,   -2.9,   -2.9,   -2.9,   -2.6,   -2.8,   -2.6,   -2.7,   -2.6,   -2.5,   -2.4,   -2.5,   -2.2,   -2.8,   -2.9,   -2.7,   -2.3,   -2.3,   -2.2,   -1.7,   -1.4,   -1.4,   -1.2,   -1.4,   -1.3,   -1.5,   -1.2,   -1.4,   -1.4,   -1.4,   -1.4,   -1.3,   -1.3,   -1.3,   -1.1,   -1.2,   -1.1,   -1.3,   -1.2,   -1.3,   -1.4,   -1.2,   -1.3,   -1.3,   -1.2,   -1.2,   -1.2,   -1.2,   -1.2,   -1.2,   -1.1
2013/09/16 01:00,   -5.6,  999.0,   -5.4,   -5.5,   -5.9,   -5.0,   -5.6,   -5.8,   -5.8,   -6.0,   -5.6,   -5.8,   -5.8,   -5.8,   -6.4,   -6.4,   -6.7,   -6.8,   -7.1,   -7.2,   -7.2,   -7.1,   -7.1,   -7.2,   -7.2,   -7.1,   -7.0,   -7.0,   -6.8,   -6.7,   -6.6,   -6.8,   -6.7,   -6.8,   -6.8,   -6.8,   -6.9,   -6.9,   -7.0,   -7.0,   -7.2,   -6.8,   -6.2,   -4.9,   -4.1,   -3.2,   -2.9,   -2.9,   -2.8,   -2.5,   -2.5,   -2.1,   -2.1,   -1.9,   -1.7,   -1.7,   -1.5,   -1.4,   -1.8,   -1.4,   -1.5,   -1.4,   -1.3,   -1.2,   -1.1,   -1.1,   -1.2,   -1.2,   -1.1,   -1.0,   -1.1,   -1.0,   -1.0,   -1.0,   -0.8,   -0.9,   -0.8,   -0.7,   -0.9,   -1.0
2013/09/16 01:10,   -6.2,   -6.3,   -5.2,   -5.6,   -5.4,   -5.2,   -5.1,   -5.8,   -6.3,   -6.4,   -6.6,   -6.6,   -6.7,   -6.8,   -7.6,   -7.7,   -7.8,   -7.7,   -7.8,   -8.0,   -8.1,   -8.3,   -8.0,   -8.0,   -8.1,   -8.2,   -8.3,   -8.2,   -8.3,   -8.5,   -8.4,   -8.5,   -8.3,   -8.2,   -8.2,   -8.1,   -8.0,   -7.8,   -7.7,   -7.2,   -7.5,   -7.4,   -6.4,   -5.7,   -4.9,   -4.0,   -3.3,   -3.1,  999.0,  999.0,   -2.4,   -2.2,   -2.0,   -1.8,   -1.7,   -1.6,   -1.5,   -1.4,   -1.1,   -1.0,   -0.9,   -0.8,   -0.8,   -0.9,   -0.9,   -0.8,   -0.9,   -0.8,   -0.8,   -0.8,   -0.7,   -0.7,   -0.7,   -0.6,   -0.6,   -0.5,   -0.5,   -0.5,   -0.5,   -0.4
2013/09/16 01:20,   -5.7,   -5.6,   -6.1,   -5.5,   -5.5,   -5.4,   -5.4,   -5.5,   -5.8,   -5.6,   -5.9,   -6.4,   -6.4,   -6.7,   -6.9,   -7.0,   -7.0,   -7.3,   -7.0,   -7.2,   -7.3,   -7.3,   -7.2,   -7.3,   -7.4,   -7.4,   -7.3,   -7.3,   -7.2,   -7.3,   -7.2,   -7.2,   -7.1,   -7.2,   -7.2,   -7.2,   -7.0,   -7.4,   -7.1,   -7.1,   -7.3,   -7.3,   -6.9,   -5.8,   -4.3,  999.0,   -2.7,   -2.4,   -2.2,   -2.0,   -1.9,   -1.7,   -1.6,   -1.5,   -1.5,   -1.5,   -1.5,   -1.5,   -1.5,   -1.4,   -1.4,   -1.3,   -1.3,   -1.3,   -1.2,   -1.2,   -1.2,   -1.1,   -1.0,   -1.0,   -0.9,   -0.8,   -0.7,   -0.6,   -0.6,   -0.6,   -0.6,   -0.6,   -0.5,   -0.3
2013/09/16 01:30,   -5.9,   -5.7,   -5.4,   -5.8,   -5.8,   -6.0,   -6.5,   -6.1,   -6.3,   -5.8,   -5.8,   -5.9,   -5.8,   -5.6,   -5.6,   -5.9,   -6.0,   -6.0,   -6.0,   -6.1,   -5.9,   -6.0,   -6.1,   -6.1,   -6.3,   -6.3,   -6.5,   -6.3,   -6.2,   -6.3,   -6.4,   -6.8,   -6.9,   -7.0,   -6.8,   -6.7,   -6.7,   -6.8,   -6.1,   -6.5,   -6.5,   -6.8,   -5.9,   -5.8,   -4.8,   -3.7,   -3.3,   -2.4,   -2.4,   -2.3,   -2.4,   -2.4,   -2.3,   -1.9,   -1.8,   -1.6,   -1.2,   -1.2,   -0.9,   -1.0,   -1.0,   -0.9,   -0.8,   -0.7,   -0.7,   -0.6,   -0.8,   -0.8,   -0.9,   -0.9,   -0.9,   -0.9,   -0.9,   -0.9,   -0.9,   -1.1,   -1.1,   -1.2,   -1.3,   -1.2
2013/09/16 01:40,   -6.3,   -6.6,   -5.9,   -5.8,   -5.9,   -6.1,   -6.4,   -6.4,   -6.7,   -6.8,   -6.9,   -7.1,   -7.2,   -7.3,   -7.2,   -7.3,   -7.3,   -7.6,   -7.5,   -7.5,   -7.5,   -7.4,   -7.6,   -7.6,   -7.7,   -7.8,   -7.7,   -7.7,   -7.7,   -7.7,   -7.7,   -7.6,   -7.7,   -7.8,   -7.9,   -8.0,   -8.1,   -8.2,   -8.4,   -8.2,   -7.6,   -7.3,   -6.1,   -5.2,   -4.3,   -3.3,   -3.0,   -2.8,   -2.6,   -2.7,   -2.4,   -2.4,   -2.3,   -2.4,   -2.2,   -2.0,   -1.9,   -1.7,   -1.7,   -1.5,   -1.3,   -1.3,   -1.3,   -1.4,   -1.4,   -1.2,   -1.2,   -1.0,   -1.1,   -1.0,   -1.0,   -1.2,   -1.3,   -1.4,   -1.3,   -1.3,   -0.8,   -1.2,   -1.2,   -1.2
2013/09/16 01:50,   -6.6,   -6.5,   -6.6,   -6.4,   -6.6,   -6.4,   -6.4,   -7.0,   -6.3,   -7.3,   -6.8,   -7.1,   -7.4,   -7.9,   -7.9,   -7.9,   -8.3,   -8.2,   -8.2,   -8.1,   -8.1,   -8.1,   -8.2,   -8.1,   -8.0,   -8.0,   -8.0,   -8.1,   -8.1,   -8.0,   -8.1,   -8.2,   -8.2,   -8.3,   -8.3,   -8.3,   -8.5,   -8.3,   -8.5,   -8.5,   -8.4,   -7.5,   -6.2,   -5.0,   -3.9,   -3.4,   -2.9,   -2.7,   -2.6,   -2.5,   -2.4,   -2.3,   -2.3,   -2.2,   -2.1,   -2.0,   -1.9,   -1.8,   -1.8,   -1.7,   -1.6,   -1.5,   -1.5,   -1.4,   -1.4,   -1.4,   -1.3,   -1.2,   -1.1,   -1.0,   -1.0,   -0.9,   -0.9,   -0.9,   -0.9,   -0.8,   -0.8,   -0.8,   -0.8,   -0.8
2013/09/16 02:00,   -5.4,   -5.2,   -5.1,   -4.2,   -4.8,   -4.4,   -4.9,   -4.3,   -4.6,   -3.9,   -5.2,   -5.4,   -6.0,   -6.3,   -6.6,   -5.9,   -6.1,   -7.5,   -7.1,   -7.0,   -7.3,   -7.6,   -7.5,   -7.5,   -7.3,   -7.3,   -7.3,   -7.2,   -6.9,   -6.9,   -6.8,   -6.8,   -6.8,   -6.8,   -6.7,   -6.6,   -6.8,   -6.7,   -6.6,   -6.4,   -6.3,   -6.2,   -6.3,   -4.9,   -3.8,   -2.8,   -2.3,   -2.1,   -2.0,   -1.9,   -1.7,   -1.7,   -1.7,   -1.6,   -1.7,   -1.6,   -1.7,   -1.7,   -1.6,   -1.6,   -1.6,   -1.6,   -1.5,   -1.5,   -1.5,   -1.5,   -1.4,   -1.3,   -1.2,   -1.1,   -1.0,   -0.9,   -0.9,   -0.8,   -0.8,   -0.8,   -0.9,   -0.9,   -0.9,   -0.9
2013/09/16 02:10,   -4.8,   -4.8,   -4.8,   -4.5,   -4.4,   -4.3,   -4.1,   -4.5,   -4.2,   -4.5,   -4.4,   -4.3,   -4.2,   -4.2,   -4.2,   -4.3,   -4.3,   -4.3,   -4.3,   -4.3,   -4.7,   -5.4,   -4.8,   -4.8,   -4.9,   -4.7,   -4.7,   -5.1,   -4.9,   -4.5,   -5.5,   -5.5,   -5.4,   -5.8,   -5.7,   -6.1,   -6.3,   -6.3,   -5.8,   -6.3,   -6.0,   -5.9,   -5.9,   -5.5,   -4.6,   -3.8,   -2.8,   -2.0,   -2.0,   -2.0,   -2.1,   -2.1,   -1.9,   -1.8,   -1.8,   -1.7,   -1.7,   -1.6,   -1.5,   -1.5,   -1.5,   -1.4,   -1.6,   -1.6,   -1.5,   -1.5,   -1.4,   -1.3,   -1.2,   -1.2,   -1.1,   -1.1,   -1.1,   -1.0,   -1.1,   -1.0,   -0.8,   -0.9,   -0.9,   -0.9
2013/09/16 02:20,   -6.2,   -6.2,   -5.9,   -5.8,   -5.5,   -5.6,   -5.4,   -5.4,   -5.6,   -5.4,   -5.4,   -5.7,   -5.9,   -6.0,   -6.6,   -6.8,   -6.7,   -6.8,   -6.5,   -6.7,   -6.8,   -6.7,   -6.6,   -7.0,   -6.9,   -7.0,   -7.0,   -6.9,   -7.0,   -6.8,   -6.9,   -6.9,   -7.4,   -7.2,   -7.3,   -7.5,   -7.7,   -7.4,   -7.2,   -7.1,   -6.9,   -6.8,   -6.4,   -6.0,   -4.7,  999.0,   -2.7,   -2.6,   -2.3,   -2.1,   -1.9,   -2.1,   -1.8,   -1.5,   -1.6,   -1.4,   -1.3,   -1.2,   -1.2,   -1.3,   -1.5,   -1.5,   -1.3,   -1.4,   -1.3,   -0.8,   -0.7,   -0.6,   -0.6,   -0.5,   -0.5,   -0.5,   -0.4,   -0.5,   -0.6,   -0.9,   -0.9,   -0.8,   -0.9,   -0.9
2013/09/16 02:30,   -6.2,   -6.2,   -6.2,   -6.1,   -6.0,   -6.0,   -5.9,   -6.2,   -5.8,   -6.3,   -6.3,   -6.5,   -7.6,   -7.0,   -7.4,   -7.6,   -7.8,   -7.8,   -7.7,   -7.7,   -7.7,   -7.6,   -7.6,   -7.7,   -7.5,   -7.7,   -7.6,   -7.6,   -7.9,   -7.8,   -8.4,   -8.3,   -8.4,   -7.9,   -8.3,   -7.7,   -8.5,   -7.8,   -7.8,   -7.7,   -6.9,   -6.8,   -6.5,   -5.7,   -5.0,   -3.8,   -3.3,   -2.9,   -2.4,   -2.4,   -1.9,   -1.9,   -1.8,   -1.8,   -1.7,   -1.6,   -1.5,   -1.4,   -1.3,   -1.3,   -1.3,   -1.2,   -1.3,   -1.2,   -1.2,   -1.2,   -1.2,   -1.2,   -1.2,   -1.2,   -1.1,   -1.0,   -1.0,   -1.0,   -1.1,   -1.1,   -1.2,   -1.2,   -1.2,   -1.2
2013/09/16 02:40,   -5.9,   -5.7,   -5.9,   -5.5,   -5.6,   -5.9,   -6.0,   -6.2,   -5.7,   -5.8,   -6.4,   -5.8,   -5.9,   -6.2,   -6.4,   -6.5,   -6.7,   -6.5,   -6.9,   -7.0,   -7.0,   -7.0,   -7.0,   -7.1,   -7.0,   -7.1,   -7.2,   -7.2,   -7.2,   -7.4,   -7.5,   -7.5,   -7.5,   -7.7,   -7.3,   -7.3,   -7.4,   -7.6,   -7.6,   -7.9,   -7.9,   -7.9,   -7.4,   -6.9,   -5.8,   -4.6,   -3.5,   -3.2,   -2.8,   -2.4,   -2.5,   -2.1,   -2.0,   -2.0,   -1.9,   -1.8,   -1.7,   -1.7,   -1.7,   -1.6,   -1.5,   -1.5,   -1.5,   -1.4,   -1.4,   -1.4,   -1.3,   -1.3,   -1.2,   -1.2,   -1.1,   -1.1,   -1.0,   -0.9,   -0.8,   -0.8,   -0.8,   -0.7,   -0.7,   -0.6
2013/09/16 02:50,   -6.3,   -6.1,   -5.9,   -5.8,   -5.9,   -5.7,   -6.1,   -5.7,   -5.9,   -5.6,   -6.1,   -6.2,   -6.3,   -6.0,   -6.3,   -6.4,   -6.6,   -6.7,   -6.4,   -6.5,   -6.5,   -6.6,   -6.6,   -6.6,   -6.7,   -6.8,   -6.8,   -6.9,   -7.0,   -7.0,   -7.0,   -7.0,   -7.1,   -7.2,   -7.3,   -7.3,   -7.7,   -7.5,   -7.8,   -7.9,   -8.3,   -7.6,   -8.0,   -7.1,   -5.9,   -4.6,  999.0,   -2.9,   -2.6,   -2.4,   -2.3,   -2.3,   -2.3,   -2.2,   -2.1,   -2.1,   -2.1,   -2.1,   -2.1,   -2.1,   -2.1,   -2.0,   -2.0,   -1.9,   -1.9,   -1.7,   -1.8,   -1.6,   -1.5,   -1.4,   -1.2,   -1.2,   -1.1,   -0.9,   -0.8,   -0.8,   -0.7,   -0.7,   -0.7,   -0.7
2013/09/16 03:00,   -7.0,   -7.4,   -7.3,   -6.5,   -6.7,   -6.4,   -6.5,   -6.2,   -6.0,   -6.1,   -6.2,   -6.4,   -6.6,   -6.3,   -6.3,   -6.2,   -6.3,   -6.2,   -6.2,   -6.3,   -6.3,   -6.4,   -6.4,   -6.5,   -6.5,   -6.5,   -6.7,   -6.7,   -6.9,   -6.9,   -6.8,   -7.1,   -6.9,   -7.2,   -7.2,   -6.9,   -7.2,   -7.4,   -7.6,   -7.6,   -7.7,   -7.3,   -7.2,   -6.6,   -5.3,   -4.4,   -3.6,   -2.6,   -2.5,   -2.3,   -2.1,   -2.1,   -2.0,   -1.9,   -1.8,   -1.8,   -1.8,   -1.9,   -1.7,   -1.6,   -1.7,   -1.7,   -1.7,   -1.7,   -1.8,   -1.6,   -1.4,   -1.3,   -1.2,   -1.1,   -1.2,   -1.2,   -1.2,   -1.3,   -1.2,   -1.2,   -1.0,   -1.1,   -1.1,   -1.2
2013/09/16 03:10,   -4.4,   -5.2,   -3.4,   -4.8,   -3.1,  999.0,   -3.1,   -2.6,   -3.7,   -2.5,   -4.8,   -4.2,   -5.4,   -4.4,   -4.8,   -5.1,   -5.1,   -5.1,   -5.2,   -6.0,   -6.0,   -4.5,   -6.0,   -5.8,   -5.6,   -6.3,   -6.2,   -6.3,   -6.0,   -5.9,   -5.5,   -5.3,   -5.3,   -5.2,   -4.7,   -4.8,   -5.5,   -5.8,   -5.8,   -5.9,   -5.2,   -6.0,   -5.8,   -5.5,   -5.2,   -4.8,   -3.9,   -2.8,   -2.1,   -2.1,   -1.8,   -1.8,   -1.7,   -1.6,   -1.6,   -1.5,   -1.4,   -1.4,   -1.3,   -1.3,   -1.2,   -1.2,   -1.1,   -1.0,   -0.9,   -0.9,   -0.9,   -0.9,   -0.9,   -0.9,   -0.8,   -0.7,   -0.7,   -0.7,   -0.7,   -0.7,   -0.9,   -1.0,   -1.0,   -1.0
2013/09/16 03:20,   -4.7,   -4.5,   -4.3,   -3.9,   -4.1,   -3.8,   -3.5,   -3.3,   -3.2,   -3.8,   -3.3,   -3.6,   -3.8,   -3.7,   -3.6,   -3.7,   -3.6,   -2.9,   -2.7,   -2.6,   -2.5,   -2.6,   -2.8,   -4.5,   -5.3,   -5.6,   -5.7,   -5.9,   -5.7,   -5.5,   -5.5,   -5.3,   -5.3,   -5.4,   -5.1,   -5.2,   -5.4,   -5.1,   -5.0,   -5.3,   -5.1,   -4.9,   -4.9,   -4.8,   -4.1,  999.0,  999.0,   -2.1,   -1.9,   -1.8,   -1.8,   -1.8,   -1.7,   -1.7,   -1.7,   -1.7,   -1.6,   -1.5,   -1.4,   -1.4,   -1.3,   -1.3,   -1.3,   -1.2,   -1.2,   -1.2,   -1.1,   -1.1,   -1.0,   -0.9,   -0.9,   -0.9,   -0.8,   -0.9,   -1.0,   -1.0,   -1.0,   -1.1,   -1.1,   -1.1
2013/09/16 03:30,   -5.0,   -5.3,   -4.9,   -4.2,   -5.2,   -4.8,   -4.3,   -4.3,   -4.2,   -3.7,   -3.7,   -3.8,   -3.8,   -4.0,   -4.5,   -5.3,   -5.5,   -4.9,   -5.3,   -5.4,   -5.4,   -5.5,   -5.5,   -5.5,   -5.3,   -5.1,   -5.2,   -5.0,   -5.0,   -5.6,   -5.6,   -5.3,   -5.2,   -5.4,   -5.1,   -4.9,   -5.3,   -5.3,   -4.8,   -5.0,   -4.9,   -4.8,   -5.1,   -5.0,   -4.6,   -3.7,   -3.0,   -2.2,   -2.0,   -1.8,   -1.7,   -1.6,   -1.5,   -1.4,   -1.4,   -1.3,   -1.2,   -1.2,   -1.2,   -1.2,   -1.2,   -1.2,   -1.2,   -1.1,   -1.1,   -1.1,   -1.1,   -1.1,   -1.0,   -1.0,   -1.0,   -1.0,   -1.0,   -1.0,   -1.0,   -1.0,   -1.1,   -1.1,   -0.9,   -1.0
2013/09/16 03:40,   -5.6,   -5.5,   -5.2,   -5.1,   -5.2,   -5.3,   -5.9,   -5.7,   -6.7,   -6.9,   -7.1,   -7.1,   -7.2,   -7.1,   -7.3,   -7.3,   -7.3,   -7.0,   -6.9,   -7.0,   -6.9,   -6.9,   -6.7,   -6.7,   -6.5,   -6.7,   -6.5,   -6.4,   -5.9,   -5.8,   -5.7,   -6.2,   -6.7,   -6.5,   -6.9,   -6.9,   -7.0,   -6.9,   -7.1,   -7.3,   -7.1,   -7.4,   -7.1,   -6.4,   -5.5,   -4.2,   -3.5,   -2.9,   -2.4,   -2.3,   -2.1,   -2.0,   -1.9,   -1.8,   -1.8,   -1.7,   -1.6,   -1.6,   -1.5,   -1.4,   -1.4,   -1.4,   -1.4,   -1.3,   -1.3,   -1.3,   -1.3,   -1.3,   -1.2,   -1.1,   -1.1,   -1.0,   -0.9,   -0.9,   -0.8,   -0.8,   -0.8,   -0.7,   -0.7,   -0.7
2013/09/16 03:50,   -5.7,   -6.0,   -5.5,   -5.4,   -5.4,   -5.4,   -5.5,   -5.3,   -5.6,   -5.7,   -6.1,   -6.4,   -6.4,   -6.5,   -6.7,   -6.8,   -6.8,   -6.9,   -6.8,   -7.1,   -7.2,   -7.2,   -7.2,   -7.3,   -7.3,   -7.2,   -7.0,   -7.3,   -7.4,   -7.6,   -7.3,   -7.1,   -6.9,   -6.8,   -7.3,   -7.4,   -7.6,   -6.9,   -7.2,   -6.9,   -6.9,   -6.9,   -7.2,   -6.4,   -6.0,   -5.5,   -4.8,   -4.6,   -4.1,   -3.7,   -3.2,   -2.8,   -2.7,   -2.4,   -2.5,   -2.8,   -2.5,   -2.3,   -1.8,   -1.5,   -1.4,   -1.1,   -1.0,   -0.7,   -0.7,   -0.5,   -0.4,   -0.3,   -0.1,   -0.2,   -0.1,   -0.1,   -0.2,   -0.1,   -0.1,   -0.1,   -0.2,   -0.3,    0.0,   -0.1
2013/09/16 04:00,   -5.7,   -6.0,   -5.8,   -6.1,   -6.0,   -5.7,   -5.4,   -5.4,   -5.4,   -5.4,   -5.6,   -5.7,   -5.8,   -5.9,   -6.1,   -5.9,   -5.9,   -5.9,   -5.9,   -5.7,   -6.0,   -6.4,   -6.5,   -6.3,   -6.2,   -5.5,   -5.9,   -5.8,   -5.8,   -6.1,   -5.6,   -5.7,   -6.5,   -6.1,   -6.2,   -6.6,   -6.1,   -6.3,   -6.0,   -6.1,   -5.9,   -5.9,   -5.9,   -5.9,   -5.4,   -4.8,   -4.4,   -3.8,   -3.3,   -3.5,   -3.2,   -2.7,   -2.7,   -1.7,   -1.8,   -1.6,   -1.2,   -1.3,   -1.5,   -1.5,   -1.4,   -1.4,   -1.4,   -1.4,   -1.2,   -1.1,   -0.7,   -0.5,   -0.4,   -0.4,   -0.4,   -0.3,   -0.3,   -0.3,   -0.4,   -0.4,   -0.4,   -0.4,   -0.4,   -0.3
2013/09/16 04:10,   -6.2,   -5.7,   -5.4,   -4.9,   -5.1,   -5.3,   -5.1,   -4.8,   -4.8,   -4.8,   -4.9,   -5.1,   -5.0,   -5.2,   -5.1,   -5.5,   -5.6,   -5.6,   -5.7,   -5.9,   -5.9,   -5.9,   -5.9,   -6.1,   -5.9,   -6.0,   -6.1,   -5.9,   -6.3,   -6.5,   -6.4,   -6.0,   -6.1,   -5.7,   -6.0,   -5.6,   -5.5,   -5.5,   -5.4,   -5.6,   -5.2,   -5.2,   -5.7,   -4.6,   -5.0,   -4.5,   -3.9,   -3.3,   -3.1,   -2.5,   -3.0,   -2.8,   -2.5,   -2.3,   -2.3,   -1.8,   -1.8,   -1.0,   -1.3,   -1.1,   -1.1,   -1.2,   -1.0,   -0.9,   -1.0,   -1.3,   -1.3,   -1.4,   -1.3,   -0.9,   -1.0,   -0.7,   -0.8,   -0.8,   -0.9,   -0.8,   -1.1,   -1.0,   -0.7,   -0.7
2013/09/16 04:20,   -5.7,   -5.4,   -5.5,   -5.6,   -5.8,   -5.5,   -5.4,   -5.1,   -6.1,   -5.8,   -5.9,   -5.5,   -5.5,   -5.4,   -5.4,   -5.3,   -5.5,   -5.6,   -5.6,   -5.8,   -5.7,   -5.8,   -5.9,   -6.0,   -6.0,   -6.0,   -5.9,   -5.9,   -5.9,   -5.9,   -5.7,   -5.7,   -5.6,   -5.6,   -5.5,   -5.2,   -4.8,   -4.8,   -4.7,   -4.9,   -5.0,   -5.0,   -5.0,   -5.3,   -4.7,   -4.3,   -3.4,   -2.8,   -2.1,   -2.0,   -2.2,   -2.2,   -1.6,   -1.7,   -2.2,   -1.7,   -2.3,   -1.7,   -1.8,   -1.8,   -2.2,   -2.2,   -2.1,   -2.0,   -1.8,   -1.7,   -1.5,   -1.3,   -1.2,   -1.1,   -1.0,   -0.9,   -1.0,   -0.9,   -0.6,   -0.7,   -0.5,   -0.5,   -0.4,   -0.6
2013/09/16 04:30,   -5.7,  999.0,   -6.3,   -6.3,   -5.7,   -6.3,   -6.1,   -6.0,   -6.4,   -6.4,   -6.2,   -6.4,   -6.5,   -6.5,   -6.5,   -6.4,   -6.4,   -6.3,   -6.2,   -6.1,   -6.1,   -6.1,   -5.9,   -5.9,   -5.8,   -5.8,   -5.7,   -5.7,   -5.7,   -5.7,   -5.6,   -5.5,   -5.3,   -5.5,   -5.7,   -6.0,   -6.1,   -6.4,   -7.0,   -6.9,   -7.0,   -6.6,   -6.1,   -5.0,   -3.8,   -3.1,   -2.6,   -2.6,   -2.5,   -2.4,   -2.4,   -2.4,   -2.4,   -2.3,   -2.3,   -2.2,   -2.2,   -2.1,   -1.9,   -1.9,   -1.9,   -1.8,   -1.7,   -1.6,   -1.6,   -1.5,   -1.5,   -1.4,   -1.4,   -1.4,   -1.5,   -1.5,   -1.6,   -1.6,   -1.6,   -1.6,   -1.6,   -1.6,   -1.6,   -1.5
2013/09/16 04:40,   -5.0,   -5.2,   -4.5,   -4.8,   -5.7,  999.0,   -5.2,   -5.4,   -5.2,   -5.7,   -5.7,   -6.6,   -6.8,   -7.2,   -7.2,  999.0,   -7.1,   -7.2,   -7.5,   -7.5,   -7.6,   -7.5,   -7.6,   -7.3,   -7.3,   -7.4,   -7.4,   -7.3,   -7.0,   -6.8,   -6.6,   -6.3,   -5.8,   -5.6,   -5.5,   -5.8,   -6.1,   -6.5,   -6.8,   -6.8,   -6.5,   -5.8,   -5.5,   -4.1,   -4.0,   -3.3,   -3.3,   -3.1,   -2.2,   -2.1,   -1.7,   -2.2,   -2.0,   -2.0,   -2.0,   -2.2,   -2.1,   -2.0,   -2.0,   -2.0,   -1.9,   -1.9,   -1.9,   -1.8,   -1.8,   -1.7,   -1.7,   -1.7,   -1.6,   -1.5,   -1.5,   -1.5,   -1.4,   -1.3,   -1.4,   -1.3,   -1.2,   -1.0,   -1.1,   -1.0
2013/09/16 04:50,   -5.0,   -5.4,   -5.2,   -4.8,   -4.7,   -6.0,   -6.4,   -6.8,   -6.6,   -6.4,   -6.8,   -6.9,   -6.7,   -6.8,   -6.6,   -6.5,   -6.5,   -6.4,   -6.3,   -6.2,   -6.2,   -6.2,   -5.9,   -6.1,   -6.3,   -6.3,   -5.8,   -5.8,   -5.8,   -6.4,   -6.5,   -7.4,   -7.5,   -6.4,   -4.4,   -5.1,   -5.5,   -6.1,   -6.5,   -5.8,   -5.6,   -5.9,   -6.1,   -6.2,   -6.1,   -5.8,   -5.3,   -4.5,   -3.5,   -4.0,   -4.3,   -4.6,   -4.3,   -3.7,   -4.0,   -3.6,   -3.5,   -3.4,   -3.1,   -3.0,   -2.5,   -2.5,   -2.3,   -2.7,   -2.5,   -2.4,   -2.3,   -2.0,   -2.0,   -1.8,   -1.6,   -1.5,   -1.4,   -1.3,   -1.2,   -1.0,   -0.8,   -1.0,   -0.8,   -0.6
2013/09/16 05:00,   -6.0,   -5.6,   -6.5,   -6.6,   -6.7,   -6.5,   -6.8,   -7.3,   -7.4,   -8.3,   -8.3,   -8.4,   -8.5,   -8.5,   -8.4,   -8.4,   -8.7,   -8.8,   -8.8,   -8.8,   -8.6,   -8.5,   -8.7,   -8.6,   -8.6,   -8.5,   -8.5,   -8.4,   -8.4,   -8.3,   -8.3,   -8.2,   -8.1,   -8.2,   -8.2,   -8.3,   -8.3,   -8.3,   -8.2,   -8.1,   -7.8,   -8.0,   -7.1,   -7.3,   -6.7,   -6.4,   -5.3,   -5.3,   -4.7,   -5.0,   -4.6,   -4.3,   -4.6,   -4.3,   -4.0,   -3.7,   -3.6,   -3.2,   -3.3,   -3.0,   -2.7,   -2.5,   -2.2,   -2.0,   -1.8,   -1.8,   -1.7,   -1.4,   -1.2,   -1.1,   -1.1,   -0.9,   -0.9,   -0.8,   -0.7,   -0.5,   -0.2,   -0.0,    0.2,    0.3
2013/09/16 05:10,   -5.6,   -5.1,   -5.0,   -5.2,   -5.7,   -5.9,   -6.0,   -6.2,   -6.4,   -6.3,   -6.3,   -6.2,   -6.2,   -6.5,   -6.4,   -6.4,   -6.4,   -6.3,   -6.2,   -5.9,   -5.9,   -5.9,   -6.0,   -6.2,   -5.8,   -6.3,   -6.1,   -6.2,   -6.5,   -6.6,   -6.8,   -7.1,   -6.9,   -6.8,   -6.9,   -7.2,   -6.8,   -6.6,   -6.7,   -6.3,   -6.1,   -6.0,   -5.5,   -5.4,   -4.5,   -3.7,   -2.7,   -2.6,   -2.4,   -2.4,   -2.1,   -1.7,   -1.8,   -1.4,   -1.5,   -1.6,   -1.6,   -1.6,   -1.6,   -1.6,   -1.6,   -1.6,   -1.7,   -1.7,   -1.7,   -1.7,   -1.7,   -1.7,   -1.6,   -1.6,   -1.5,   -1.4,   -1.3,   -1.3,   -1.4,   -1.3,   -1.3,   -1.3,   -1.3,   -1.2
2013/09/16 05:20,   -5.0,   -5.0,   -5.4,   -5.0,   -5.1,   -5.5,   -5.7,   -6.1,   -6.3,   -6.4,   -6.5,   -5.9,   -6.8,   -6.5,   -6.8,   -7.1,   -7.2,   -7.0,   -6.8,   -6.7,   -6.8,   -6.7,   -6.7,   -6.5,   -6.5,   -6.5,   -6.4,   -6.3,   -6.6,   -6.5,   -6.5,   -7.6,   -7.7,   -7.5,   -8.2,   -7.8,   -8.0,   -8.1,   -7.9,   -8.6,   -7.5,  999.0,  999.0,   -6.2,   -5.2,   -4.0,   -3.5,   -3.2,   -2.9,   -2.7,   -2.6,   -2.5,   -2.4,   -2.4,   -2.4,   -2.4,   -2.3,   -2.3,   -2.1,   -2.1,   -2.0,   -1.9,   -1.8,   -1.6,   -1.6,   -1.5,   -1.4,   -1.4,   -1.4,   -1.3,   -1.3,   -1.0,   -0.8,   -0.8,   -0.7,   -0.7,   -0.7,   -0.9,   -0.9,   -1.0
2013/09/16 05:30,   -4.7,   -4.3,   -4.1,   -4.5,   -4.4,   -4.8,  999.0,   -4.8,  999.0,   -3.7,   -3.6,   -4.2,   -5.2,   -3.9,   -4.4,   -5.5,   -4.8,   -5.6,   -5.5,   -5.6,   -5.5,   -5.5,   -5.4,   -5.3,   -5.3,   -5.4,   -5.5,   -5.9,   -6.1,   -6.0,   -5.8,   -6.1,   -6.2,   -6.2,   -6.2,   -6.4,   -6.5,   -6.4,   -6.2,   -6.1,   -6.2,   -6.2,   -6.0,   -6.1,   -6.2,   -5.1,   -3.4,   -2.5,   -2.3,   -2.1,   -1.9,   -1.9,   -1.8,   -1.7,   -1.7,   -1.6,   -1.6,   -1.6,   -1.5,   -1.5,   -1.4,   -1.3,   -1.3,   -1.1,   -1.1,   -1.0,   -1.0,   -0.8,   -0.8,   -0.7,   -0.6,   -0.7,   -0.7,   -0.7,   -0.6,   -0.6,   -0.6,   -0.6,   -0.7,   -0.7
2013/09/16 05:40,   -4.7,   -4.4,   -4.1,   -4.5,   -4.6,   -4.3,   -4.5,   -4.7,   -4.5,   -4.5,   -4.3,   -4.6,   -4.4,   -4.4,   -4.5,   -5.0,   -4.7,   -4.4,   -4.5,   -4.6,   -4.8,   -4.9,   -5.0,   -5.1,   -5.5,   -5.6,   -5.5,   -5.6,   -5.4,   -5.6,   -6.0,   -5.9,   -5.6,   -5.8,   -5.7,   -5.7,   -5.6,   -5.6,   -5.7,   -5.6,   -6.2,   -6.6,   -5.9,   -6.0,   -6.0,   -5.3,   -4.3,   -3.5,   -2.6,   -2.4,   -2.3,   -2.3,   -2.2,   -2.1,   -2.1,   -1.9,   -1.8,   -1.8,   -1.7,   -1.7,   -1.6,   -1.6,   -1.5,   -1.4,   -1.4,   -1.4,   -1.3,   -1.3,   -1.2,   -1.2,   -1.1,   -1.0,   -0.9,   -0.7,   -0.9,   -1.0,   -0.8,   -0.7,   -0.8,   -0.8
2013/09/16 05:50,   -5.2,   -4.5,   -4.5,   -4.3,   -4.8,   -5.0,   -5.0,   -5.1,   -5.4,   -5.5,   -5.3,   -5.4,   -5.6,   -5.2,   -5.3,   -5.5,   -5.2,   -5.4,   -5.8,   -5.7,   -5.6,   -5.9,   -5.8,   -5.7,   -5.8,   -5.8,   -5.8,   -5.8,   -5.8,   -6.0,   -5.8,   -6.0,   -5.6,   -5.9,   -6.1,   -5.7,   -5.6,   -5.6,   -6.3,   -6.2,   -6.6,   -6.4,   -6.1,   -6.4,   -5.7,   -4.8,   -4.2,   -3.5,   -2.9,   -2.7,   -2.5,   -2.4,   -2.2,   -2.2,   -2.3,   -2.3,   -2.2,   -2.1,   -2.1,   -2.1,   -1.9,   -1.9,   -2.0,   -1.9,   -1.8,   -1.7,   -1.6,   -1.4,   -1.6,   -1.6,   -1.5,   -1.3,   -1.2,   -1.1,   -1.0,   -0.9,   -0.8,   -0.9,   -0.8,   -0.9
2013/09/16 06:00,   -4.6,   -5.0,   -4.8,   -4.9,   -5.1,   -5.1,   -5.2,   -5.7,   -5.8,   -5.9,   -5.8,   -6.0,   -5.9,   -5.9,   -6.0,   -6.2,   -6.1,   -6.0,   -6.2,   -6.2,   -6.3,   -6.4,   -6.5,   -6.6,   -6.6,   -6.6,   -6.4,   -6.5,   -6.5,   -6.3,   -6.2,   -6.2,   -6.0,   -5.9,   -6.0,   -6.0,   -5.8,   -5.8,   -5.8,   -5.7,   -5.6,   -5.2,   -5.7,   -5.8,   -5.4,   -5.3,   -4.9,   -3.9,   -3.2,   -2.5,   -2.1,   -2.4,   -2.3,   -2.3,   -2.1,   -1.9,   -1.8,   -1.7,   -1.7,   -1.7,   -1.7,   -1.6,   -1.6,   -1.4,   -1.3,   -1.2,   -1.2,   -1.1,   -1.0,   -0.9,   -0.8,   -0.8,   -0.8,   -0.7,   -0.7,   -0.6,   -0.6,   -0.7,   -0.8,   -0.9
